Time,TemperatureF,DewpointF,PressureIn,WindDirection,WindDirectionDegrees,WindSpeedMPH,WindSpeedGustMPH,Humidity,HourlyPrecipIn,Conditions,Clouds,dailyrainin,SoftwareType,DateUTC
2013-02-18 00:01:00,46.0,14.0,-100.00,WSW,247,6.0,7.0,27,-99.99,,,-99.99,,2013-02-18 08:01:00,
2013-02-18 00:11:00,45.0,15.0,-100.00,WSW,254,7.0,8.0,30,-99.99,,,-99.99,,2013-02-18 08:11:00,
2013-02-18 00:21:00,44.0,18.0,-100.00,West,260,7.0,8.0,35,-99.99,,,-99.99,,2013-02-18 08:21:00,
2013-02-18 00:32:00,44.0,18.0,-100.00,West,271,6.0,8.0,35,-99.99,,,-99.99,,2013-02-18 08:32:00,
2013-02-18 00:41:00,44.0,14.0,-100.00,WNW,296,3.0,4.0,29,-99.99,,,-99.99,,2013-02-18 08:41:00,
2013-02-18 00:52:00,44.0,15.0,-100.00,WNW,289,4.0,5.0,30,-99.99,,,-99.99,,2013-02-18 08:52:00,
2013-02-18 01:02:00,45.0,12.0,-100.00,West,278,5.0,5.0,26,-99.99,,,-99.99,,2013-02-18 09:02:00,
2013-02-18 01:11:00,46.0,10.0,-100.00,WNW,290,4.0,4.0,23,-99.99,,,-99.99,,2013-02-18 09:11:00,
2013-02-18 01:22:00,46.0,9.0,-100.00,West,277,4.0,5.0,22,-99.99,,,-99.99,,2013-02-18 09:22:00,
2013-02-18 01:31:00,47.0,9.0,-100.00,West,260,5.0,6.0,21,-99.99,,,-99.99,,2013-02-18 09:31:00,
2013-02-18 01:41:00,47.0,9.0,-100.00,SW,233,6.0,6.0,21,-99.99,,,-99.99,,2013-02-18 09:41:00,
2013-02-18 01:51:00,45.0,9.0,-100.00,SW,228,7.0,8.0,23,-99.99,,,-99.99,,2013-02-18 09:51:00,
2013-02-18 02:01:00,44.0,10.0,-100.00,WSW,240,6.0,7.0,25,-99.99,,,-99.99,,2013-02-18 10:01:00,
2013-02-18 02:11:00,44.0,10.0,-100.00,West,261,6.0,8.0,25,-99.99,,,-99.99,,2013-02-18 10:11:00,
2013-02-18 02:21:00,43.0,11.0,-100.00,NW,304,7.0,8.0,27,-99.99,,,-99.99,,2013-02-18 10:21:00,
2013-02-18 02:31:00,41.0,11.0,-100.00,NNW,342,5.0,7.0,29,-99.99,,,-99.99,,2013-02-18 10:31:00,
2013-02-18 02:42:00,42.0,10.0,-100.00,WNW,302,2.0,4.0,27,-99.99,,,-99.99,,2013-02-18 10:42:00,
2013-02-18 02:51:00,44.0,10.0,-100.00,SSW,197,3.0,4.0,25,-99.99,,,-99.99,,2013-02-18 10:51:00,
2013-02-18 03:01:00,44.0,10.0,-100.00,SW,225,6.0,7.0,25,-99.99,,,-99.99,,2013-02-18 11:01:00,
2013-02-18 03:11:00,43.0,10.0,-100.00,South,189,5.0,7.0,26,-99.99,,,-99.99,,2013-02-18 11:11:00,
2013-02-18 03:21:00,42.0,13.0,-100.00,SE,141,3.0,4.0,30,-99.99,,,-99.99,,2013-02-18 11:21:00,
2013-02-18 03:31:00,42.0,14.0,-100.00,SSE,167,2.0,3.0,31,-99.99,,,-99.99,,2013-02-18 11:31:00,
2013-02-18 03:42:00,43.0,17.0,-100.00,SW,221,4.0,5.0,34,-99.99,,,-99.99,,2013-02-18 11:42:00,
2013-02-18 03:52:00,44.0,17.0,-100.00,SW,224,5.0,6.0,33,-99.99,,,-99.99,,2013-02-18 11:52:00,
2013-02-18 04:01:00,43.0,17.0,-100.00,West,274,3.0,6.0,35,-99.99,,,-99.99,,2013-02-18 12:01:00,
2013-02-18 04:11:00,43.0,17.0,-100.00,WSW,255,3.0,3.0,35,-99.99,,,-99.99,,2013-02-18 12:11:00,
2013-02-18 04:21:00,43.0,14.0,-100.00,SW,215,1.0,2.0,30,-99.99,,,-99.99,,2013-02-18 12:21:00,
2013-02-18 04:31:00,43.0,11.0,-100.00,SW,233,2.0,4.0,27,-99.99,,,-99.99,,2013-02-18 12:31:00,
2013-02-18 04:42:00,45.0,10.0,-100.00,WSW,257,6.0,7.0,24,-99.99,,,-99.99,,2013-02-18 12:42:00,
2013-02-18 04:52:00,45.0,10.0,-100.00,West,264,5.0,6.0,24,-99.99,,,-99.99,,2013-02-18 12:52:00,
2013-02-18 05:02:00,45.0,11.0,-100.00,WSW,257,6.0,8.0,25,-99.99,,,-99.99,,2013-02-18 13:02:00,
2013-02-18 05:11:00,44.0,12.0,-100.00,West,259,7.0,8.0,27,-99.99,,,-99.99,,2013-02-18 13:11:00,
2013-02-18 05:22:00,44.0,13.0,-100.00,WSW,250,6.0,7.0,28,-99.99,,,-99.99,,2013-02-18 13:22:00,
2013-02-18 05:32:00,44.0,13.0,-100.00,SW,236,6.0,8.0,28,-99.99,,,-99.99,,2013-02-18 13:32:00,
2013-02-18 05:42:00,43.0,13.0,-100.00,SSW,197,5.0,7.0,29,-99.99,,,-99.99,,2013-02-18 13:42:00,
2013-02-18 05:52:00,43.0,13.0,-100.00,SW,225,4.0,5.0,29,-99.99,,,-99.99,,2013-02-18 13:52:00,
2013-02-18 06:02:00,43.0,14.0,-100.00,WSW,239,2.0,3.0,30,-99.99,,,-99.99,,2013-02-18 14:02:00,
2013-02-18 06:11:00,43.0,14.0,-100.00,WNW,302,2.0,3.0,30,-99.99,,,-99.99,,2013-02-18 14:11:00,
2013-02-18 06:22:00,42.0,13.0,-100.00,NNW,340,3.0,5.0,30,-99.99,,,-99.99,,2013-02-18 14:22:00,
2013-02-18 06:32:00,42.0,13.0,-100.00,NNW,347,3.0,5.0,30,-99.99,,,-99.99,,2013-02-18 14:32:00,
2013-02-18 06:41:00,43.0,14.0,-100.00,NW,318,2.0,3.0,31,-99.99,,,-99.99,,2013-02-18 14:41:00,
2013-02-18 06:52:00,43.0,14.0,-100.00,North,5,4.0,5.0,30,-99.99,,,-99.99,,2013-02-18 14:52:00,
2013-02-18 07:01:00,43.0,14.0,-100.00,North,358,2.0,4.0,31,-99.99,,,-99.99,,2013-02-18 15:01:00,
2013-02-18 07:11:00,43.0,14.0,-100.00,North,358,3.0,4.0,31,-99.99,,,-99.99,,2013-02-18 15:11:00,
2013-02-18 07:21:00,44.0,15.0,-100.00,North,2,2.0,3.0,30,-99.99,,,-99.99,,2013-02-18 15:21:00,
2013-02-18 07:31:00,45.0,15.0,-100.00,South,174,3.0,5.0,30,-99.99,,,-99.99,,2013-02-18 15:31:00,
2013-02-18 07:42:00,45.0,15.0,-100.00,SE,129,2.0,4.0,30,-99.99,,,-99.99,,2013-02-18 15:42:00,
2013-02-18 07:52:00,46.0,15.0,-100.00,SE,131,2.0,3.0,28,-99.99,,,-99.99,,2013-02-18 15:52:00,
2013-02-18 08:01:00,46.0,16.0,-100.00,ESE,121,2.0,4.0,29,-99.99,,,-99.99,,2013-02-18 16:01:00,
2013-02-18 08:11:00,46.0,16.0,-100.00,East,101,2.0,4.0,29,-99.99,,,-99.99,,2013-02-18 16:11:00,
2013-02-18 08:21:00,47.0,16.0,-100.00,ENE,71,2.0,4.0,28,-99.99,,,-99.99,,2013-02-18 16:21:00,
2013-02-18 08:31:00,48.0,16.0,-100.00,NE,44,2.0,4.0,28,-99.99,,,-99.99,,2013-02-18 16:31:00,
2013-02-18 08:42:00,48.0,16.0,-100.00,NNE,33,3.0,4.0,27,-99.99,,,-99.99,,2013-02-18 16:42:00,
2013-02-18 09:02:00,53.0,15.0,-100.00,ESE,109,2.0,4.0,22,-99.99,,,-99.99,,2013-02-18 17:02:00,
2013-02-18 09:11:00,55.0,18.0,-100.00,SSE,152,3.0,5.0,23,-99.99,,,-99.99,,2013-02-18 17:11:00,
2013-02-18 09:21:00,54.0,18.0,-100.00,SSE,151,4.0,6.0,24,-99.99,,,-99.99,,2013-02-18 17:21:00,
2013-02-18 09:32:00,55.0,18.0,-100.00,SSE,147,4.0,6.0,23,-99.99,,,-99.99,,2013-02-18 17:32:00,
2013-02-18 09:42:00,54.0,17.0,-100.00,SE,142,5.0,7.0,23,-99.99,,,-99.99,,2013-02-18 17:42:00,
2013-02-18 09:52:00,54.0,19.0,-100.00,SSE,154,4.0,7.0,25,-99.99,,,-99.99,,2013-02-18 17:52:00,
2013-02-18 10:01:00,54.0,19.0,-100.00,SSE,154,4.0,7.0,25,-99.99,,,-99.99,,2013-02-18 18:01:00,
2013-02-18 10:11:00,56.0,18.0,-100.00,SSE,150,5.0,8.0,22,-99.99,,,-99.99,,2013-02-18 18:11:00,
2013-02-18 10:21:00,58.0,17.0,-100.00,SE,129,6.0,12.0,20,-99.99,,,-99.99,,2013-02-18 18:21:00,
2013-02-18 10:32:00,57.0,13.0,-100.00,ESE,121,8.0,14.0,17,-99.99,,,-99.99,,2013-02-18 18:32:00,
2013-02-18 10:42:00,58.0,9.0,-100.00,ESE,110,10.0,17.0,14,-99.99,,,-99.99,,2013-02-18 18:42:00,
2013-02-18 10:52:00,58.0,9.0,-100.00,East,99,10.0,18.0,14,-99.99,,,-99.99,,2013-02-18 18:52:00,
2013-02-18 11:02:00,59.0,10.0,-100.00,ESE,111,8.0,14.0,14,-99.99,,,-99.99,,2013-02-18 19:02:00,
2013-02-18 11:11:00,59.0,6.0,-100.00,ESE,114,11.0,18.0,12,-99.99,,,-99.99,,2013-02-18 19:11:00,
2013-02-18 11:21:00,58.0,7.0,-100.00,East,97,11.0,17.0,13,-99.99,,,-99.99,,2013-02-18 19:21:00,
2013-02-18 11:32:00,58.0,9.0,-100.00,ESE,113,10.0,17.0,14,-99.99,,,-99.99,,2013-02-18 19:32:00,
2013-02-18 11:42:00,58.0,9.0,-100.00,East,97,10.0,15.0,14,-99.99,,,-99.99,,2013-02-18 19:42:00,
2013-02-18 11:52:00,59.0,10.0,-100.00,ESE,108,8.0,16.0,14,-99.99,,,-99.99,,2013-02-18 19:52:00,
2013-02-18 12:01:00,59.0,10.0,-100.00,ESE,111,7.0,16.0,14,-99.99,,,-99.99,,2013-02-18 20:01:00,
2013-02-18 12:11:00,60.0,11.0,-100.00,SSE,156,6.0,11.0,14,-99.99,,,-99.99,,2013-02-18 20:11:00,
2013-02-18 12:22:00,60.0,11.0,-100.00,SSE,168,6.0,13.0,14,-99.99,,,-99.99,,2013-02-18 20:22:00,
2013-02-18 12:32:00,60.0,11.0,-100.00,SSE,168,6.0,13.0,14,-99.99,,,-99.99,,2013-02-18 20:32:00,
2013-02-18 12:42:00,60.0,11.0,-100.00,SSE,168,6.0,13.0,14,-99.99,,,-99.99,,2013-02-18 20:42:00,
2013-02-18 12:52:00,59.0,19.0,-100.00,SW,217,11.0,16.0,21,-99.99,,,-99.99,,2013-02-18 20:52:00,
2013-02-18 13:02:00,59.0,20.0,-100.00,SSW,212,8.0,12.0,22,-99.99,,,-99.99,,2013-02-18 21:02:00,
2013-02-18 13:11:00,59.0,20.0,-100.00,SSW,206,10.0,17.0,22,-99.99,,,-99.99,,2013-02-18 21:11:00,
2013-02-18 13:21:00,58.0,21.0,-100.00,SW,217,10.0,15.0,24,-99.99,,,-99.99,,2013-02-18 21:21:00,
2013-02-18 13:32:00,58.0,21.0,-100.00,SW,226,10.0,14.0,24,-99.99,,,-99.99,,2013-02-18 21:32:00,
2013-02-18 13:42:00,56.0,22.0,-100.00,SW,217,10.0,16.0,26,-99.99,,,-99.99,,2013-02-18 21:42:00,
2013-02-18 13:52:00,56.0,23.0,-100.00,SW,236,10.0,16.0,27,-99.99,,,-99.99,,2013-02-18 21:52:00,
2013-02-18 14:01:00,58.0,24.0,-100.00,SW,231,8.0,15.0,27,-99.99,,,-99.99,,2013-02-18 22:01:00,
2013-02-18 14:11:00,58.0,24.0,-100.00,SW,231,8.0,15.0,27,-99.99,,,-99.99,,2013-02-18 22:11:00,
2013-02-18 14:21:00,57.0,24.0,-100.00,SW,222,10.0,16.0,28,-99.99,,,-99.99,,2013-02-18 22:21:00,
2013-02-18 14:32:00,56.0,23.0,-100.00,SW,220,10.0,16.0,28,-99.99,,,-99.99,,2013-02-18 22:32:00,
2013-02-18 14:42:00,56.0,23.0,-100.00,SW,220,10.0,16.0,28,-99.99,,,-99.99,,2013-02-18 22:42:00,
2013-02-18 14:52:00,56.0,24.0,-100.00,SW,224,8.0,14.0,29,-99.99,,,-99.99,,2013-02-18 22:52:00,
2013-02-18 15:01:00,56.0,24.0,-100.00,SW,224,8.0,14.0,29,-99.99,,,-99.99,,2013-02-18 23:01:00,
2013-02-18 15:12:00,56.0,27.0,-100.00,SSW,203,8.0,13.0,33,-99.99,,,-99.99,,2013-02-18 23:12:00,
2013-02-18 15:22:00,55.0,26.0,-100.00,SW,214,10.0,13.0,33,-99.99,,,-99.99,,2013-02-18 23:22:00,
2013-02-18 15:32:00,56.0,27.0,-100.00,SW,226,8.0,14.0,32,-99.99,,,-99.99,,2013-02-18 23:32:00,
2013-02-18 15:42:00,55.0,26.0,-100.00,SW,225,8.0,14.0,33,-99.99,,,-99.99,,2013-02-18 23:42:00,
2013-02-18 15:52:00,55.0,31.0,-100.00,SW,228,9.0,14.0,39,-99.99,,,-99.99,,2013-02-18 23:52:00,
2013-02-18 16:02:00,54.0,33.0,-100.00,SW,220,10.0,16.0,44,-99.99,,,-99.99,,2013-02-19 00:02:00,
2013-02-18 16:11:00,54.0,34.0,-100.00,SW,226,9.0,14.0,46,-99.99,,,-99.99,,2013-02-19 00:11:00,
2013-02-18 16:22:00,53.0,34.0,-100.00,SW,234,9.0,14.0,48,-99.99,,,-99.99,,2013-02-19 00:22:00,
2013-02-18 16:32:00,52.0,35.0,-100.00,SW,221,9.0,13.0,52,-99.99,,,-99.99,,2013-02-19 00:32:00,
2013-02-18 16:42:00,52.0,35.0,-100.00,WSW,242,8.0,11.0,53,-99.99,,,-99.99,,2013-02-19 00:42:00,
2013-02-18 16:52:00,52.0,35.0,-100.00,WSW,256,6.0,10.0,53,-99.99,,,-99.99,,2013-02-19 00:52:00,
2013-02-18 17:02:00,52.0,35.0,-100.00,WSW,256,6.0,10.0,53,-99.99,,,-99.99,,2013-02-19 01:02:00,
2013-02-18 17:12:00,51.0,37.0,-100.00,WSW,252,6.0,10.0,58,-99.99,,,-99.99,,2013-02-19 01:12:00,
2013-02-18 17:22:00,50.0,37.0,-100.00,West,264,8.0,11.0,61,-99.99,,,-99.99,,2013-02-19 01:22:00,
2013-02-18 17:33:00,49.0,37.0,-100.00,West,266,7.0,10.0,63,-99.99,,,-99.99,,2013-02-19 01:33:00,
2013-02-18 17:42:00,48.0,37.0,-100.00,West,260,6.0,10.0,66,-99.99,,,-99.99,,2013-02-19 01:42:00,
2013-02-18 17:53:00,48.0,38.0,-100.00,SW,232,6.0,9.0,68,-99.99,,,-99.99,,2013-02-19 01:53:00,
2013-02-18 18:01:00,46.0,38.0,-100.00,SW,216,6.0,9.0,73,-99.99,,,-99.99,,2013-02-19 02:01:00,
2013-02-18 18:12:00,45.0,39.0,-100.00,SSW,199,5.0,7.0,79,-99.99,,,-99.99,,2013-02-19 02:12:00,
2013-02-18 18:22:00,44.0,39.0,-100.00,SSW,198,5.0,6.0,84,-99.99,,,-99.99,,2013-02-19 02:22:00,
2013-02-18 18:33:00,43.0,40.0,-100.00,SSW,193,6.0,7.0,88,-99.99,,,-99.99,,2013-02-19 02:33:00,
2013-02-18 18:42:00,42.0,41.0,-100.00,South,183,5.0,6.0,96,-99.99,,,-99.99,,2013-02-19 02:42:00,
2013-02-18 18:52:00,41.0,41.0,-100.00,South,190,5.0,6.0,100,-99.99,,,-99.99,,2013-02-19 02:52:00,
2013-02-18 19:03:00,41.0,41.0,-100.00,South,190,5.0,6.0,100,-99.99,,,-99.99,,2013-02-19 03:03:00,
2013-02-18 19:12:00,42.0,41.0,-100.00,SSW,202,5.0,7.0,98,-99.99,,,-99.99,,2013-02-19 03:12:00,
2013-02-18 19:22:00,42.0,41.0,-100.00,SW,220,5.0,6.0,97,-99.99,,,-99.99,,2013-02-19 03:22:00,
2013-02-18 19:32:00,42.0,40.0,-100.00,SW,235,6.0,7.0,94,-99.99,,,-99.99,,2013-02-19 03:32:00,
2013-02-18 19:42:00,42.0,40.0,-100.00,WSW,244,6.0,7.0,91,-99.99,,,-99.99,,2013-02-19 03:42:00,
2013-02-18 19:52:00,42.0,40.0,-100.00,WSW,257,5.0,6.0,94,-99.99,,,-99.99,,2013-02-19 03:52:00,
2013-02-18 20:01:00,41.0,40.0,-100.00,NW,304,3.0,5.0,96,-99.99,,,-99.99,,2013-02-19 04:01:00,
2013-02-18 20:12:00,41.0,41.0,-100.00,WNW,301,3.0,4.0,99,-99.99,,,-99.99,,2013-02-19 04:12:00,
2013-02-18 20:22:00,41.0,41.0,-100.00,WNW,291,4.0,5.0,100,-99.99,,,-99.99,,2013-02-19 04:22:00,
2013-02-18 20:32:00,41.0,41.0,-100.00,WNW,291,4.0,4.0,100,-99.99,,,-99.99,,2013-02-19 04:32:00,
2013-02-18 20:42:00,41.0,41.0,-100.00,WNW,285,3.0,4.0,99,-99.99,,,-99.99,,2013-02-19 04:42:00,
2013-02-18 20:52:00,41.0,41.0,-100.00,WNW,290,3.0,4.0,99,-99.99,,,-99.99,,2013-02-19 04:52:00,
2013-02-18 21:01:00,41.0,41.0,-100.00,WNW,297,4.0,5.0,99,-99.99,,,-99.99,,2013-02-19 05:01:00,
2013-02-18 21:12:00,41.0,40.0,-100.00,WNW,302,3.0,5.0,97,-99.99,,,-99.99,,2013-02-19 05:12:00,
2013-02-18 21:22:00,41.0,40.0,-100.00,WNW,287,3.0,5.0,96,-99.99,,,-99.99,,2013-02-19 05:22:00,
2013-02-18 21:32:00,41.0,40.0,-100.00,WNW,290,3.0,4.0,96,-99.99,,,-99.99,,2013-02-19 05:32:00,
2013-02-18 21:42:00,41.0,40.0,-100.00,WNW,289,3.0,4.0,97,-99.99,,,-99.99,,2013-02-19 05:42:00,
2013-02-18 21:52:00,40.0,39.0,-100.00,WNW,284,3.0,4.0,97,-99.99,,,-99.99,,2013-02-19 05:52:00,
2013-02-18 22:02:00,40.0,39.0,-100.00,West,267,4.0,6.0,96,-99.99,,,-99.99,,2013-02-19 06:02:00,
2013-02-18 22:11:00,40.0,38.0,-100.00,WSW,252,4.0,5.0,94,-99.99,,,-99.99,,2013-02-19 06:11:00,
2013-02-18 22:21:00,40.0,39.0,-100.00,WSW,244,5.0,6.0,95,-99.99,,,-99.99,,2013-02-19 06:21:00,
2013-02-18 22:32:00,40.0,39.0,-100.00,SW,234,5.0,6.0,98,-99.99,,,-99.99,,2013-02-19 06:32:00,
2013-02-18 22:42:00,39.0,39.0,-100.00,SW,227,5.0,6.0,99,-99.99,,,-99.99,,2013-02-19 06:42:00,
2013-02-18 22:52:00,39.0,39.0,-100.00,SW,235,5.0,6.0,100,-99.99,,,-99.99,,2013-02-19 06:52:00,
2013-02-18 23:01:00,38.0,38.0,-100.00,SW,232,6.0,7.0,100,-99.99,,,-99.99,,2013-02-19 07:01:00,
2013-02-18 23:11:00,38.0,38.0,-100.00,SW,235,5.0,8.0,100,-99.99,,,-99.99,,2013-02-19 07:11:00,
2013-02-18 23:21:00,38.0,38.0,-100.00,SW,233,5.0,7.0,100,-99.99,,,-99.99,,2013-02-19 07:21:00,
2013-02-18 23:32:00,37.0,37.0,-100.00,SW,236,5.0,7.0,100,-99.99,,,-99.99,,2013-02-19 07:32:00,
2013-02-18 23:42:00,37.0,37.0,-100.00,WSW,242,5.0,7.0,100,-99.99,,,-99.99,,2013-02-19 07:42:00,
2013-02-18 23:51:00,36.0,36.0,-100.00,West,259,5.0,6.0,100,-99.99,,,-99.99,,2013-02-19 07:51:00,